Flag for Russia Weather past 2 weeks in Yakutsk, Russia

Now
-6 °F

Sunny.


Feels Like: -19 °F
Forecast: -20 / -3 °F
Wind: 6 mph from North

Location: Jakutsk

Current Time: Feb 27, 2015 at 3:31:35 PM

Latest Report: Feb 27, 2015 at 3:00 PM


Visibility: 10 mi

Pressure: 29.95 "Hg

Humidity: 70%

Dew point: -13 °F

Location of YakutskLocation

Historic Weather in Yakutsk — Graph

°F

Yakutsk temperature yesterday

Maximum temperature yesterday: -8 °F (at 1:30 PM)
Minimum temperature yesterday: -26 °F (at 7:00 AM)
Average temperature yesterday: -17 °F

Past Weeks' High & Low Weather Summary

 TemperatureHumidityPressure
High7 °F (Feb 12, 2:00 PM)92% (Feb 14, 3:00 AM)30.57 "Hg (Feb 14, 3:00 AM)
Low-38 °F (Feb 22, 6:00 AM)60% (Feb 22, 11:00 AM)29.92 "Hg (Feb 14, 1:00 PM)
Average-17 °F77%30.18 "Hg
* Reported Feb 12 2:00 PM — Feb 27 2:30 PM, Yakutsk, Weather by CustomWeather, © 2015

Note: Actual official high and low records may vary slightly from our data, if they occured in-between our weather recording intervals... More about our weather records

Advertising

Yakutsk weather history for previous 24 hours

 ConditionsComfort  
Time TempWeatherWind HumidityBarometerVisibility
2:30 PM
Fri, Feb 27
-8 °FSunny.6 mph70%29.95 "Hg10 mi
2:00 PM-8 °FLight snow. Overcast.6 mph70%29.92 "HgN/A
1:30 PM-9 °FLight snow. Overcast.6 mph70%29.95 "HgN/A
12:30 PM-11 °FSunny.6 mph70%29.95 "Hg10 mi
12:00 PM-13 °FSunny.6 mph69%29.95 "Hg10 mi
11:30 AM-15 °FLight snow. Overcast.6 mph76%29.95 "HgN/A
11:00 AM-17 °FLight snow. Overcast.6 mph76%29.95 "HgN/A
10:30 AM-18 °FLight snow. Overcast.6 mph75%29.95 "HgN/A
10:00 AM-18 °FLight snow. More clouds than sun.3 mph75%29.95 "HgN/A
9:30 AM-20 °FLight snow. More clouds than sun.3 mph83%29.95 "HgN/A
9:00 AM-20 °FLight snow. More clouds than sun.3 mph75%29.95 "HgN/A
8:30 AM-20 °FLight snow. More clouds than sun.3 mph75%29.95 "HgN/A
8:00 AM-22 °FLight snow. More clouds than sun.3 mph75%29.95 "HgN/A
7:30 AM-22 °FLight snow. Mostly cloudy.3 mph75%29.95 "HgN/A
7:00 AM-22 °FLight snow. Overcast.1 mph75%29.95 "HgN/A
6:30 AM-20 °FLight snow. Overcast.1 mph75%29.95 "HgN/A
6:00 AM-20 °FLight snow. Overcast.3 mph75%29.95 "HgN/A
5:30 AM-20 °FLight snow. Overcast.1 mph75%29.95 "HgN/A
5:00 AM-22 °FLight snow. Overcast.1 mph75%29.95 "HgN/A
4:30 AM-22 °FLight snow. Overcast.3 mph83%29.95 "HgN/A
4:00 AM-22 °FLight snow. Overcast.3 mph75%29.95 "HgN/A
3:30 AM-22 °FLight snow. Overcast.3 mph75%29.95 "HgN/A
3:00 AM-22 °FLight snow. Overcast.1 mph75%29.95 "HgN/A
2:30 AM-20 °FLight snow. Overcast.3 mph75%29.95 "HgN/A
2:00 AM-20 °FLight snow. Overcast.3 mph75%29.98 "HgN/A
1:30 AM-22 °FLight snow. Overcast.3 mph83%29.98 "HgN/A
1:00 AM-22 °FLight snow. Overcast.3 mph75%29.98 "HgN/A
12:30 AM-22 °FLight snow. Overcast.1 mph75%29.98 "HgN/A
12:00 AM-20 °FLight snow. Overcast.3 mph75%29.98 "HgN/A
11:30 PM
Thu, Feb 26
-20 °FLight snow. Overcast.3 mph75%29.98 "HgN/A
11:00 PM-18 °FLight snow. Overcast.3 mph75%29.98 "HgN/A
10:30 PM-18 °FLight snow. Overcast.3 mph75%30.01 "HgN/A
10:00 PM-18 °FLight snow. Overcast.1 mph75%30.01 "HgN/A
9:30 PM-18 °FClear.3 mph75%30.01 "Hg10 mi
9:00 PM-18 °FClear.3 mph83%30.01 "Hg10 mi
8:30 PM-18 °FClear.3 mph75%30.01 "Hg10 mi
8:00 PM-20 °FClear.1 mph83%30.01 "Hg10 mi
7:30 PM-17 °FClear.3 mph76%30.01 "Hg10 mi
7:00 PM-18 °FClear.1 mph83%30.01 "Hg10 mi
6:30 PM-17 °FClear.3 mph76%30.01 "Hg10 mi
6:00 PM-17 °FClear.3 mph76%30.01 "Hg10 mi
5:30 PM-15 °FSunny.3 mph69%30.01 "Hg10 mi
5:00 PM-15 °FSunny.3 mph69%30.01 "Hg10 mi
4:30 PM-13 °FSunny.3 mph76%30.01 "Hg10 mi
4:00 PM-11 °FSunny.3 mph76%30.01 "Hg10 mi
3:30 PM-9 °FSunny.1 mph77%30.01 "Hg10 mi
3:00 PM-9 °FSunny.No wind77%30.01 "Hg10 mi
Weather by CustomWeather, © 2015

See weather overviewHow to use our weather pages